Regional Weather Roundup
Issued by NWS

Home | Current Version | Previous Version | Graphics & Text | Print | Product List | Glossary On
Versions: 1 2 3 4 5 6 7 8 9 10 11 12 13 14 15 16 17 18 19 20 21 22 23 24 25 26 27 28 29 30 31 32 33 34 35 36 37 38 39 40 41 42 43 44 45 46 47 48 49 50
000
ASUS45 KBOU 211107
RWRCO

WEATHER ROUNDUP FOR COLORADO
NATIONAL WEATHER SERVICE DENVER/BOULDER CO
500 AM MDT MON JUL 21 2014

NOTE: "FAIR" INDICATES FEW OR NO CLOUDS BELOW 12000 FEET WITH NO
SIGNIFICANT WEATHER AND/OR OBSTRUCTIONS TO VISIBILITY.

COZ001>005-013-030-031-211200-
...NORTHWEST COLORADO...

CITY           SKY/WX    TMP DP  RH WIND       PRES   REMARKS
CRAIG          CLEAR     46  45  96 CALM      30.23R
HAYDEN         CLEAR     55  43  62 E7        30.25R
MEEKER         CLEAR     52  44  74 CALM      30.24R
MOUNT WERNER   CLEAR     57  32  38 S14       30.55R
STEAMBOAT SPGS CLEAR     50  44  80 CALM      30.27S
WALDEN         PTCLDY    45  36  70 E7        30.35S
$$

COZ006>008-011-211200-
...WEST CENTRAL VALLEYS...

CITY           SKY/WX    TMP DP  RH WIND       PRES   REMARKS
GRAND JUNCTION CLEAR     66  45  46 E12       30.11R
MONTROSE       CLEAR     60  44  55 CALM      30.22R
EAGLE          CLEAR     50  45  81 E3        30.34R
RIFLE          CLEAR     57  45  64 SE6       30.19S
DELTA          CLEAR     64  46  52 NE5       30.18R
NUCLA          CLEAR     63  36  36 E9        30.25R
$$

COZ017>023-064>068-211200-
...SOUTHWEST COLORADO...

CITY           SKY/WX    TMP DP  RH WIND       PRES   REMARKS
DURANGO        MOCLDY    61  43  51 N3        30.29S
CORTEZ         CLEAR     54  39  57 CALM      30.23R
PAGOSA SPRINGS MOCLDY    56  47  71 CALM      30.38F
TELLURIDE      PTCLDY    57  34  41 SE5       30.47S
WOLF CREEK PAS NOT AVBL
$$

COZ009-010-012-014-032>034-037-058>063-211200-
...CENTRAL COLORADO...

CITY           SKY/WX    TMP DP  RH WIND       PRES   REMARKS
ASPEN          CLEAR     49  44  83 SW3       30.35S
BUENA VISTA    MOCLDY    55  44  67 N9        30.40S
COPPER MTN     CLEAR     54  32  43 SW13G21   30.68S
BERTHOUD PASS  FAIR      45  32  61 W20G28    30.70S
COTTONWOOD PAS MOCLDY    61  36  39 CALM      30.52R
GUNNISON       MOCLDY    48  41  76 CALM      30.43S
KREMMLING      CLEAR     45  41  87 CALM      30.38R
LEADVILLE      PTCLDY    41  40  96 CALM      30.52S
MONARCH PASS   MOCLDY    48  36  61 SW18      30.77S
SALIDA         MOCLDY   N/A N/A N/A NW7       30.44S
SUNLIGHT       CLEAR     54  39  58 CALM      30.58S
WILKERSON PASS NOT AVBL
$$

COZ069>075-211200-
...SAN LUIS VALLEY/SANGRE DE CRISTO MOUNTAINS...

CITY           SKY/WX    TMP DP  RH WIND       PRES   REMARKS
ALAMOSA        CLOUDY    58  50  75 N3        30.36S
LA VETA PASS   NOT AVBL
SAGUACHE       MOCLDY    55  43  62 NW8       30.40S
$$

COZ035-036-038>040-211200-
...NORTHERN COLORADO FRONT RANGE...

CITY           SKY/WX    TMP DP  RH WIND       PRES   REMARKS
DENVER INTL AP PTCLDY    69  44  40 SW13      30.10R
DMNS CITY PARK   N/A     68  47  46 S3G9      30.10S
AURORA         MOCLDY    68  45  44 S10       30.13S
FRONT RANGE AP NOT AVBL
ERIE MUNI ARPT PTCLDY    59  50  71 CALM      30.07S
BOULDER MUN AP PTCLDY    68  45  42 W3        30.08S
CENTENNIAL     MOCLDY    70  42  36 SW8       30.15R
BROOMFIELD     PTCLDY    68  39  34 W6        30.12S
FORT COLLINS   PTCLDY    63  52  67 SE3       30.08R
LONGMONT       PTCLDY    60  50  69 CALM      30.09S
$$

COZ041-046-047-076>085-087-088-211200-
...PIKES PEAK/PALMER DIVIDE AND SOUTHERN FOOTHILLS...

CITY           SKY/WX    TMP DP  RH WIND       PRES   REMARKS
COLO. SPRINGS  MOCLDY    66  46  48 N7        30.18R
A. F. ACADEMY  MOCLDY    62  46  55 NE5       30.21S
ELLICOTT       MOCLDY    67  49  52 NE3       30.16R
FALCON         MOCLDY    65  42  43 NW7       30.24R
FORT CARSON    MOCLDY    66  47  48 NW8       30.14S
LIMON          MOCLDY    60  50  69 N5        30.11S
MONUMENT HILL  MOCLDY    63  41  45 SW9       30.24S
TRINIDAD       PTCLDY    68  47  46 W9        30.16S
$$

COZ042>045-048>051-090-091-211200-
...NORTHEAST COLORADO...

CITY           SKY/WX    TMP DP  RH WIND       PRES   REMARKS
GREELEY ARPT   PTCLDY    57  50  77 CALM      30.05S
AKRON          MOCLDY    70  48  45 SW10      30.04R
BURLINGTON     CLOUDY    70  59  68 SW7       30.01R
WRAY             N/A     73  52  48 W7        29.96S
STERLING       MOCLDY    63  57  82 S6        29.99R
HOLYOKE        CLOUDY    73  55  53 SW7       29.96S
FORT MORGAN    MOCLDY    62  51  66 W5        30.04R
$$

COZ086-089-092>099-211200-
...SOUTHEAST COLORADO...

CITY           SKY/WX    TMP DP  RH WIND       PRES   REMARKS
PUEBLO         PTCLDY    66  54  65 N3        30.07R
LA JUNTA       PTCLDY    70  55  59 W10       30.02R
LAMAR          CLEAR     70  63  78 W7        29.97R
SPRINGFIELD      N/A     69  62  78 SW13      30.04S
$$



USA.gov is the U.S. government's official web portal to all federal, state and local government web resources and services.